Voltar ao catálogo

ALOS DEB

AtivoSSO
NORAD 35418·DEBRIS·🇯🇵 Japan

Lançado Jan 24, 2006 de Tanegashima Space Center

Loading…

Próximas Passagens (próximas 24 horas)

TLE

AtualizadoSource: Space-Track

Época: Sep 14, 2026, 11:33 UTC

1 35418U 06002Z   26257.48140063  .00003055  00000-0  35080-3 0  9999
2 35418  98.2019 248.2400 0001113  74.5871  77.2849 14.86620513 47307

Acompanhe ALOS DEB em tempo real com AllMySat

Download on the App Store